Location: Cormoranche
(46.2405°N, 4.8317°E)
Time: 02:08:31
(UTC+00:00)

Daily predictions for brighter satellites

Satellite Brightness Start Highest point End
(mag) Time Altitude Azimuth Time Altitude Azimuth Time Altitude Azimuth
ATLAS 2AS CENTAUR R/B 4.2 02:52:20 35° NE 02:52:20 35° NE 02:56:25 10° NE
Lacrosse 5 4.3 03:33:29 16° NE 03:33:29 16° NE 03:34:36 10° NE
ATLAS 3B R/B 3.8 03:36:31 36° SSE 03:36:31 36° SSE 03:40:32 10° SSE
CZ-4C R/B 3.7 03:47:08 29° NNE 03:47:08 29° NNE 03:50:10 10° NE
BREEZE-M DEB (TANK) 4.5 03:53:02 68° W 03:54:33 82° NNW 04:29:01 10° E
COSMO-SKYMED 1 4.5 03:55:58 10° ESE 03:59:36 27° ENE 04:00:08 26° NE
Atlas Centaur 2 4.5 04:00:45 19° S 04:00:45 19° S 04:04:26 10° SSE
Cosmos 1844 Rocket 3.7 04:02:42 36° NNE 04:02:42 36° NNE 04:06:00 10° NNE
COSMOS 2406 4.5 04:02:25 29° NNE 04:04:20 37° NE 04:09:38 10° ESE
USA 305 4.2 04:16:56 39° E 04:16:56 39° E 04:19:55 10° ESE
ATLAS 5 CENTAUR R/B 2.7 04:17:17 39° ESE 04:17:17 39° ESE 04:21:05 10° NE
Nadezhda 3 Rocket 4.4 04:16:09 10° N 04:22:22 62° ENE 04:28:29 10° SSE
USA 306 3.7 04:25:27 48° ENE 04:25:27 48° ENE 04:28:49 10° ESE
Cosmos 2263 Rocket 4.4 04:33:14 11° N 04:33:14 11° N 04:33:38 10° N
BREEZE-M DEB (TANK) 3.9 04:34:15 38° E 04:34:15 38° E 04:36:49 10° E
ADEOS 3.5 04:28:41 10° NNE 04:33:56 87° ESE 04:39:10 10° SSW
FENGYUN 3A 3.5 04:29:00 10° NNE 04:34:25 79° WNW 04:36:29 39° SSW
Meteor 1-27 Rocket 4.3 04:29:21 10° N 04:35:08 59° ENE 04:40:57 10° SSE
Cosmos 1844 4.0 04:37:52 49° NNW 04:37:52 49° NNW 04:42:25 10° NNE
ATLAS 2AS CENTAUR R/B 3.6 04:39:47 35° NW 04:40:22 36° NNW 04:47:24 10° NNE
Meteor 1-10 Rocket 4.0 04:41:21 38° NNW 04:43:35 78° W 04:49:15 10° S
Cosmos 1610 Rocket 4.5 04:40:02 10° S 04:46:25 89° E 04:52:50 10° N
SKYMED 2 3.6 04:43:09 10° SSE 04:47:28 79° ENE 04:48:45 45° N
METEOR-M 4.0 04:43:56 10° N 04:49:17 75° WNW 04:54:36 10° SSW
Cosmos 1707 Rocket 4.3 04:47:28 15° N 04:50:57 50° ENE 04:55:10 10° SSE
Cosmos 372 Rocket 3.8 04:49:27 45° SW 04:50:59 72° WNW 04:56:07 10° NNE
CZ-2C R/B 3.5 04:50:56 12° S 04:50:59 12° S 04:52:20 10° SSE
SJ-12 4.0 04:46:56 10° NNE 04:51:00 76° ESE 04:55:03 10° S
COSMOS 2455 2.7 04:49:17 42° WSW 04:51:18 67° NW 04:57:20 10° NNE
Cosmos 2150 Rocket 4.3 04:46:20 10° S 04:51:33 66° ESE 04:56:44 10° NNE
Cosmos 2154 Rocket 3.9 04:48:28 10° S 04:54:43 82° W 05:01:04 10° N
Cosmos 2298 Rocket 4.1 04:49:48 10° SSW 04:55:04 77° ESE 05:00:23 10° NNE
PSLV R/B 4.1 04:53:36 10° SSE 04:57:42 71° ENE 04:59:50 27° N
ALOS 3.8 04:55:08 10° N 04:56:56 22° N 04:56:56 22° N
Sich 1 3.2 04:55:47 10° S 05:00:12 77° E 05:04:39 10° NNE
Cosmos 1295 Rocket 4.3 04:55:20 10° S 05:01:24 87° W 05:07:33 10° N
ERS-2 4.1 04:57:59 10° S 04:59:08 19° SSW 04:59:08 19° SSW
Cosmos 1833 Rocket 2.8 04:57:52 23° NNW 05:01:32 74° ENE 05:07:07 10° SSE
Cosmos 2327 Rocket 4.3 04:57:34 10° SSW 05:03:37 68° W 05:09:42 10° N
Cosmos 2074 Rocket 4.2 05:00:25 10° SW 05:06:18 44° WNW 05:12:14 10° N
Cosmos 2082 Rocket 3.0 05:01:52 13° NNW 05:06:46 49° ENE 05:12:17 10° SE
SL-4 R/B 1.6 05:06:43 69° W 05:07:07 81° SSW 05:10:48 10° ESE
EXPRESS MD2 3.5 05:07:42 51° WSW 05:08:30 64° SSW 05:14:58 10° SE
USA 290 4.0 05:07:38 19° NNE 05:09:19 30° ENE 05:12:13 10° SE
Cosmos 2228 Rocket 3.8 05:11:09 33° SW 05:11:09 33° SW 05:14:10 10° SSW
Cosmos 1437 Rocket 3.4 05:12:49 36° SW 05:12:49 36° SW 05:15:29 10° SSW
Lacrosse 5 3.2 05:12:41 23° NNW 05:13:44 24° N 05:17:53 10° NE
EO 1 Delta rocket 3.7 05:12:40 10° S 05:17:21 76° W 05:22:04 10° NNW
Cosmos 2341 Rocket 4.0 05:15:12 10° S 05:21:24 88° E 05:27:41 10° N
ERBS 4.2 05:21:36 17° N 05:22:25 19° NNE 05:24:53 10° ENE
ATLAS 3B R/B 4.2 05:23:50 16° WSW 05:23:50 16° WSW 05:27:14 10° SW
USA 307 3.0 05:22:34 38° W 05:24:01 60° SW 05:28:15 10° SE
Meteor 2-12 Rocket 4.4 05:17:59 10° SSW 05:24:09 81° W 05:30:21 10° N
Meteor PRIRODA 3.6 05:22:50 10° N 05:26:32 61° WNW 05:30:12 10° SSW
CZ-4B R/B 3.1 05:24:19 10° N 05:28:40 57° WNW 05:32:50 10° SSW
USA 308 3.2 05:28:59 32° W 05:30:39 54° SW 05:34:51 10° SE
CZ-4C R/B 3.6 05:32:20 20° NW 05:33:59 22° NNW 05:38:54 10° NNE
Cosmos 2278 Rocket 2.1 05:28:48 10° SSW 05:34:27 78° WNW 05:40:10 10° NNE
SAR-Lupe-4 4.4 05:31:36 10° SSW 05:34:40 29° W 05:34:40 29° W
COSMO-SKYMED 1 3.2 05:31:44 10° SSW 05:35:39 33° W 05:37:21 24° NW
FALCON 9 DEB 4.4 05:35:47 23° NNW 05:36:43 26° N 05:39:30 10° ENE
Okean O Rocket 3.5 05:34:10 10° NNE 05:38:15 34° E 05:42:17 10° SSE
Cosmos 1862 Rocket 3.6 05:33:54 10° N 05:38:21 82° E 05:42:44 10° S
Envisat 3.2 05:34:06 10° NNE 05:39:13 73° ESE 05:44:17 10° S
Cosmos 1805 Rocket 4.2 05:36:20 10° SW 05:40:19 32° WNW 05:44:22 10° N
deb Chang Zheng 4 4.4 05:37:46 10° N 05:41:32 29° WNW 05:45:16 10° SW
NOAA 6 4.4 05:37:32 10° NNE 05:42:40 70° ESE 05:47:45 10° S
Cosmos 494 Rocket 4.0 05:39:47 13° NNW 05:44:16 58° WSW 05:49:17 10° S
YAOGAN 6 2.5 05:40:58 10° NNE 05:44:28 82° ESE 05:47:56 10° S
Cosmos 1844 Rocket 4.0 05:44:24 18° NW 05:45:04 18° NW 05:48:57 10° N
Cosmos 1515 4.3 05:41:38 10° N 05:45:24 56° ENE 05:49:08 10° SSE
SMAP 4.0 05:43:09 10° NNE 05:47:43 50° E 05:52:14 10° S
Cosmos 1666 Rocket 3.6 05:44:13 10° SSW 05:48:26 52° WNW 05:52:44 10° N
COSMOS 2406 3.7 05:44:31 16° NW 05:48:41 41° WSW 05:54:03 10° S
Cosmos 1689 Rocket 3.7 05:50:15 10° SW 05:51:47 18° WSW 05:51:47 18° WSW
BREEZE-M (TANK) 3.3 05:45:11 10° SW 05:52:29 55° SSE 05:55:04 10° ENE
USA 305 3.8 05:53:05 19° W 05:55:34 34° SW 05:59:28 10° SSE
Cosmos 1242 Rocket 2.7 05:55:51 10° NNW 05:59:26 52° W 06:02:59 10° S
H-2A R/B 2.2 05:56:23 10° NNE 06:00:13 85° WNW 06:04:05 10° SSW
Cosmos 1271 Rocket 4.0 05:56:56 10° N 06:00:37 42° ENE 06:04:20 10° SSE
ATLAS 5 CENTAUR R/B 2.4 05:58:53 15° W 06:01:40 29° NW 06:05:48 10° NNE
MOS 1 Rocket 3.9 05:59:22 10° S 06:04:10 44° W 06:09:13 10° NNW
USA 306 4.0 06:01:36 15° W 06:04:22 30° SW 06:08:07 10° SSE
CZ-2C R/B 2.8 06:00:19 10° SSE 06:05:43 78° ENE 06:11:02 10° N
Cosmos 2366 rocket 4.0 06:01:13 10° SSW 06:07:29 69° W 06:13:44 10° N
Cosmos 1633 Rocket 3.5 06:04:19 10° SW 06:08:27 40° WNW 06:12:38 10° N
USA 229 DEB 4.1 06:01:49 10° NW 06:09:08 75° NE 06:16:50 10° SE
USA 229 4.1 06:01:56 10° NW 06:09:14 74° NE 06:16:55 10° SE
USA 81 4.4 06:05:25 10° SSW 06:10:22 42° WNW 06:15:23 10° N
NOAA 12 4.3 06:05:30 10° NNE 06:10:47 77° ESE 06:16:01 10° S
Okean 1-7 3.7 06:06:42 10° N 06:10:57 58° E 06:15:07 10° SSE
FALCON 9 DEB 4.0 06:10:17 13° NW 06:12:47 34° NNE 06:15:47 10° E
Cosmos 2218 Rocket 4.0 06:07:06 10° SSW 06:13:14 60° WNW 06:19:21 10° N
Cosmos 1125 Rocket 4.0 06:09:19 10° SW 06:14:08 37° WNW 06:18:59 10° N
H-2A R/B 3.6 06:10:54 10° N 06:14:15 28° WNW 06:17:34 10° SW
Meteor 1-20 Rocket 4.4 06:10:01 10° SSW 06:15:37 53° WNW 06:21:20 10° N
GENESIS II 4.2 06:12:44 10° SW 06:16:45 68° NW 06:20:46 10° NNE
NOSS 3-1 (C) 4.2 06:10:34 10° NW 06:18:07 84° SW 06:26:50 10° SSE
FALCON 9 DEB 4.0 06:15:49 12° NW 06:18:33 35° NNE 06:21:33 10° E
Cosmos 1269 Rocket 4.2 06:15:10 10° NNW 06:20:21 57° WSW 06:25:30 10° S
PSLV R/B 4.5 06:18:58 10° N 06:22:19 30° WNW 06:25:35 10° SW
Iridium 2 3.9 06:18:40 10° N 06:22:26 75° E 06:26:11 10° S
NOSS 3-1 (A) 4.3 06:15:55 10° NW 06:23:24 76° NE 06:32:04 10° SE
NOSS 2-1 (E) 2.8 06:25:28 10° SW 06:28:47 68° NW 06:32:21 10° NE
CZ-2C R/B 3.6 06:29:18 10° SSW 06:29:44 10° S 06:30:10 10° S
AQUARIUS 4.2 06:28:46 10° N 06:33:14 65° WNW 06:37:40 10° SSW
ATLAS 2AS CENTAUR R/B 4.3 06:28:03 10° NW 06:33:47 21° N 06:39:18 10° NE
Cosmos 2242 Rocket 3.7 06:31:25 10° NNW 06:35:45 58° W 06:40:04 10° S
